AI4ZL Weather Reports


time (UTC)temp
C
wind
direction
speed
KPH
gust
KPH
rain 1hr
cm
rain 24hr
cm
rain mn
cm
humidity
%
barometer
mb
20260831053250 22 0.0 0.0 0.00 0.00 0.00 99 1019.0
20260831052245 22 0.0 0.0 0.00 0.00 0.00 99 1018.6
20260831051301 22 0.0 0.0 0.00 0.00 0.00 99 1018.6
20260831050236 22 316 0.0 1.6 0.00 0.00 0.00 99 1018.6
20260831045231 22 0.0 0.0 0.00 0.00 0.00 99 1018.5
20260831044247 22 0.0 0.0 0.00 0.00 0.00 99 1018.8
20260831043242 22 0.0 0.0 0.00 0.00 0.00 99 1018.9
20260831042237 22 0.0 0.0 0.00 0.00 0.00 99 1018.8
20260831041233 23 0.0 0.0 0.00 0.00 0.00 99 1018.7
20260831040308 23 0.0 0.0 0.00 0.00 0.00 99 1018.8
20260831035243 23 0.0 0.0 0.00 0.00 0.00 99 1018.7
20260831034236 23 0.0 0.0 0.00 0.00 0.00 98 1018.7
20260831033231 23 0.0 0.0 0.00 0.00 0.00 98 1018.8
20260831032247 23 0.0 0.0 0.00 0.00 0.00 98 1018.7
20260831031243 23 0.0 0.0 0.00 0.00 0.00 98 1018.7
20260831030237 23 0.0 0.0 0.00 0.00 0.00 98 1018.7
20260831025232 23 0.0 0.0 0.00 0.00 0.00 98 1018.6
20260831024247 23 0.0 0.0 0.00 0.00 0.00 98 1018.7
20260831023242 23 0.0 0.0 0.00 0.00 0.00 98 1018.6
20260831022236 23 0.0 0.0 0.00 0.00 0.00 97 1018.4
20260831021231 23 0.0 0.0 0.00 0.00 0.00 97 1018.5
20260831020247 24 311 0.0 1.6 0.00 0.00 0.00 97 1018.3
20260831015305 24 0.0 0.0 0.00 0.00 0.00 96 1018.3
20260831014256 24 0.0 0.0 0.00 0.00 0.00 96 1018.3
20260831013231 24 0.0 0.0 0.00 0.00 0.00 95 1018.0
20260831012245 25 0.0 0.0 0.00 0.00 0.00 93 1017.7
20260831011300 25 0.0 0.0 0.00 0.00 0.00 91 1017.9
20260831010234 25 0.0 0.0 0.00 0.00 0.00 90 1017.8
20260831005310 26 0.0 0.0 0.00 0.00 0.00 89 1017.8
20260831004244 26 0.0 0.0 0.00 0.00 0.00 85 1017.7
20260831003239 27 0.0 0.0 0.00 0.00 0.00 84 1017.7
20260831002234 27 313 0.0 1.6 0.00 0.00 0.00 84 1017.8
20260831001249 28 0.0 0.0 0.00 0.00 0.00 83 1017.8
20260831000305 30 0.0 0.0 0.00 0.00 0.00 77 1017.9
20260830235240 31 6 0.0 1.6 0.00 0.00 0.00 71 1018.0
20260830234234 32 296 0.0 1.6 0.00 0.00 0.00 62 1018.2
20260830233310 32 288 1.6 4.8 0.00 0.00 0.00 58 1018.1
20260830232306 33 292 1.6 3.2 0.00 0.00 0.00 57 1018.0
20260830231239 33 276 1.6 3.2 0.00 0.00 0.00 55 1017.9
20260830230234 33 267 3.2 4.8 0.00 0.00 0.00 53 1017.8
20260830225248 34 262 1.6 4.8 0.00 0.00 0.00 53 1017.8
20260830224244 34 267 1.6 3.2 0.00 0.00 0.00 54 1017.8
20260830223239 34 254 3.2 6.4 0.00 0.00 0.00 53 1017.8
20260830222235 34 260 3.2 4.8 0.00 0.00 0.00 52 1017.9
20260830221232 34 257 3.2 4.8 0.00 0.00 0.00 52 1017.9
20260830220306 34 266 3.2 6.4 0.00 0.00 0.00 52 1018.0
20260830215238 35 257 3.2 6.4 0.00 0.00 0.00 52 1017.9
20260830214254 34 271 3.2 6.4 0.00 0.00 0.00 51 1018.1
20260830213231 34 265 4.8 11.3 0.00 0.00 0.00 53 1018.3
20260830212247 34 246 3.2 9.7 0.00 0.00 0.00 52 1018.2
20260830211243 34 252 4.8 9.7 0.00 0.00 0.00 51 1018.3
20260830210239 35 221 3.2 4.8 0.00 0.00 0.00 51 1018.1
20260830205233 34 253 4.8 11.3 0.00 0.00 0.00 50 1018.2
20260830204248 35 268 3.2 11.3 0.00 0.00 0.00 50 1018.5
20260830203243 34 274 3.2 6.4 0.00 0.00 0.00 50 1018.7
20260830202239 34 209 3.2 6.4 0.00 0.00 0.00 52 1019.0
20260830201235 34 254 4.8 9.7 0.00 0.00 0.00 50 1019.0
20260830200232 34 181 3.2 6.4 0.00 0.00 0.00 52 1019.1
20260830195248 34 257 3.2 9.7 0.00 0.00 0.00 50 1019.2
20260830194305 34 230 3.2 6.4 0.00 0.00 0.00 51 1019.1
20260830193241 34 245 4.8 11.3 0.00 0.00 0.00 49 1019.3
20260830192237 34 227 4.8 11.3 0.00 0.00 0.00 50 1019.2
20260830191233 33 235 3.2 6.4 0.00 0.00 0.00 52 1019.4
20260830190249 33 271 4.8 14.5 0.00 0.00 0.00 50 1019.4
20260830185246 33 241 3.2 11.3 0.00 0.00 0.00 53 1019.6
20260830184242 33 230 3.2 11.3 0.00 0.00 0.00 52 1019.8
20260830183238 33 224 3.2 6.4 0.00 0.00 0.00 54 1019.7
20260830182234 33 261 4.8 12.9 0.00 0.00 0.00 52 1019.7
20260830181248 33 254 4.8 14.5 0.00 0.00 0.00 53 1019.9
20260830180243 33 216 4.8 11.3 0.00 0.00 0.00 54 1019.8
20260830175237 33 234 4.8 11.3 0.00 0.00 0.00 54 1019.9
20260830174253 33 211 4.8 9.7 0.00 0.00 0.00 54 1019.9
20260830173247 33 259 3.2 6.4 0.00 0.00 0.00 54 1020.1
20260830172306 32 208 3.2 11.3 0.00 0.00 0.00 53 1020.3
20260830171237 33 220 4.8 9.7 0.00 0.00 0.00 54 1020.4
20260830170231 32 197 1.6 4.8 0.00 0.00 0.00 58 1020.3
20260830165246 32 205 3.2 6.4 0.00 0.00 0.00 58 1020.4
20260830164240 32 181 3.2 6.4 0.00 0.00 0.00 57 1020.5
20260830163237 33 179 3.2 9.7 0.00 0.00 0.00 57 1020.4
20260830162232 32 244 3.2 4.8 0.00 0.00 0.00 60 1020.4
20260830161249 32 235 1.6 4.8 0.00 0.00 0.00 59 1020.5
20260830160245 31 211 3.2 4.8 0.00 0.00 0.00 63 1020.4
20260830155241 31 202 4.8 9.7 0.00 0.00 0.00 62 1020.4
20260830154237 31 190 3.2 6.4 0.00 0.00 0.00 65 1020.3
20260830153253 31 242 3.2 6.4 0.00 0.00 0.00 64 1020.3
20260830152248 30 228 1.6 4.8 0.00 0.00 0.00 67 1020.3
20260830151243 30 206 3.2 4.8 0.00 0.00 0.00 68 1020.0
20260830150258 29 209 1.6 6.4 0.00 0.00 0.00 71 1020.1
20260830145233 28 162 3.2 4.8 0.00 0.00 0.00 74 1020.1
20260830144248 28 232 1.6 4.8 0.00 0.00 0.00 74 1020.2
20260830143243 27 198 1.6 4.8 0.00 0.00 0.00 77 1020.2
20260830142239 26 197 3.2 6.4 0.00 0.00 0.00 78 1020.2
20260830141234 26 174 3.2 4.8 0.00 0.00 0.00 79 1020.3
20260830140309 26 154 1.6 4.8 0.00 0.00 0.00 80 1020.3
20260830135243 26 188 1.6 3.2 0.00 0.00 0.00 82 1020.2
20260830134237 25 187 3.2 4.8 0.00 0.00 0.00 83 1020.2
20260830133233 24 159 1.6 3.2 0.00 0.00 0.00 88 1020.4
20260830132248 22 200 1.6 3.2 0.00 0.00 0.00 97 1020.4
20260830131010 21 90 0.0 1.6 0.00 0.00 0.00 99 1020.3
20260830130005 21 331 0.0 1.6 0.00 0.00 0.00 99 1020.2
20260830124959 20 0.0 0.0 0.00 0.00 0.00 99 1020.3
20260830124013 18 0.0 0.0 0.00 0.00 0.00 99 1020.4
20260830123009 18 0.0 0.0 0.00 0.00 0.00 99 1020.2
20260830122004 18 0.0 0.0 0.00 0.00 0.00 99 1019.9
20260830120959 17 0.0 0.0 0.00 0.00 0.00 99 1020.0
20260830120014 17 0.0 0.0 0.00 0.00 0.00 99 1020.1
20260830115009 17 0.0 0.0 0.00 0.00 0.00 99 1019.8
20260830114004 17 0.0 0.0 0.00 0.00 0.00 99 1019.8
20260830112959 17 0.0 0.0 0.00 0.00 0.00 99 1019.7
20260830112014 17 0.0 0.0 0.00 0.00 0.00 99 1019.6
20260830111009 17 0.0 0.0 0.00 0.00 0.00 99 1019.6
20260830110004 17 0.0 0.0 0.00 0.00 0.00 99 1019.5
20260830104959 17 0.0 0.0 0.00 0.00 0.00 99 1019.4
20260830104013 17 0.0 0.0 0.00 0.00 0.00 99 1019.4
20260830103008 17 0.0 0.0 0.00 0.00 0.00 99 1019.4
20260830102004 17 0.0 0.0 0.00 0.00 0.00 99 1019.3
20260830100959 17 0.0 0.0 0.00 0.00 0.00 99 1019.2
20260830100015 17 0.0 0.0 0.00 0.00 0.00 99 1019.3
20260830095010 17 0.0 0.0 0.00 0.00 0.00 99 1019.4
20260830094006 17 0.0 0.0 0.00 0.00 0.00 99 1019.5
20260830093003 17 0.0 0.0 0.00 0.00 0.00 99 1019.4
20260830091959 17 0.0 0.0 0.00 0.00 0.00 99 1019.3
20260830091014 17 0.0 0.0 0.00 0.00 0.00 99 1019.5
20260830090009 17 0.0 0.0 0.00 0.00 0.00 99 1019.4
20260830085005 17 0.0 0.0 0.00 0.00 0.00 99 1019.4
20260830084000 18 0.0 0.0 0.00 0.00 0.00 99 1019.4
20260830083016 17 0.0 0.0 0.00 0.00 0.00 99 1019.4
20260830082011 18 0.0 0.0 0.00 0.00 0.00 99 1019.4
20260830081006 17 0.0 0.0 0.00 0.00 0.00 99 1019.5
20260830080001 18 0.0 0.0 0.00 0.00 0.00 99 1019.5
20260830075017 18 0.0 0.0 0.00 0.00 0.00 99 1019.6
20260830074013 18 0.0 0.0 0.00 0.00 0.00 99 1019.5
20260830073009 17 0.0 0.0 0.00 0.00 0.00 99 1019.6
20260830072004 18 0.0 0.0 0.00 0.00 0.00 99 1019.8
20260830070959 18 0.0 0.0 0.00 0.00 0.00 99 1019.8
20260830070015 18 0.0 0.0 0.00 0.00 0.00 99 1019.8
20260830065010 18 0.0 0.0 0.00 0.00 0.00 99 1019.9
20260830064004 18 0.0 0.0 0.00 0.00 0.00 99 1019.9
20260830062959 18 0.0 0.0 0.00 0.00 0.00 99 1019.9
20260830062015 18 0.0 0.0 0.00 0.00 0.00 99 1019.9
20260830061009 18 0.0 0.0 0.00 0.00 0.00 99 1019.9
20260830060005 18 0.0 0.0 0.00 0.00 0.00 99 1019.9
20260830054959 18 0.0 0.0 0.00 0.00 0.00 99 1019.9